Weather in Laghouat

Algeria     33°47′06″N   2°52′47″E
temp.,
°C
wind,
m/s
gust,
m/s
humid.,
%
clouds,
%
prec.,
mm/h
press.,
hPa
HPBL,
m
6 march, sat
sat601:00+12sse334533 0.0 101827
04:00+11ssw234945 0.0 101727
07:00+9s225623 0.0 101923
10:00+14ssw354219 0.0 1021494
13:00+18s553232 0.0 10201847
16:00+19s5630100 0.0 10182234
19:00+17sse4636100 0.0 1018114
22:00+14se584569 0.0 1020157
7 march, sun
sun701:00+13sse585282 0.0 1020224
04:00+11ese346162 0.0 101959
07:00+9e336644 0.0 101936
10:00+12e7105487 0.0 1018727
13:00+17e783491 0.4 10161239
16:00+18e663075 0.0 10131457
19:00+16ne473687 0.0 1013224
22:00+14ese4845100 0.0 1015197
8 march, mon
mon801:00+12ne345294 0.0 101454
04:00+11nne335618 0.0 101224
07:00+10n235624 0.0 101225
10:00+14n455115 0.0 1013736
13:00+17nw33388 0.0 10121804
16:00+17wnw333666 0.0 10101962
19:00+16nw454472 0.1 1011721
22:00+12nnw6106318 0.3 1014558
9 march, tue
tue901:00+11nnw476850 0.3 1015332
04:00+10nw357525 0.0 1015155
07:00+9nnw597613 0.0 1016268
10:00+11nnw78590 0.0 1017820
13:00+15n66410 0.0 10161392
16:00+16nnw55330 0.0 10142095
19:00+14nnw57428 0.0 1015209
22:00+12n46559 0.0 1019182
10 march, wed
wed1001:00+10n46684 0.0 1020192
04:00+9n33680 0.0 102055
07:00+8n33670 0.0 102141
10:00+12nne56430 0.0 1023619
13:00+15ne55270 0.0 10221379
16:00+16ene44240 0.0 10201964
19:00+14e34290 0.0 102175
22:00+12e47380 0.0 1024145